Lapse_Rate
6.9 7.0 7.1 7.3 7.3 7.0 6.9 6.9 7.1 7.1 6.9 6.8 6.7 6.6 6.5 6.5 6.5 6.3 6.0 6.1 6.3 6.4 6.6 6.8 6.6 6.6 6.7 6.1 7.3 6.9 6.9 8.1 9.0 8.3 7.5 7.1 7.1 6.5 6.2 5.7 5.8 5.5 5.7 5.3 5.7
6.9 7.0 7.1 7.2 7.3 7.2 7.1 7.1 7.2 7.1 7.0 6.9 6.8 6.7 6.5 6.5 6.3 6.1 5.8 6.1 6.1 6.4 6.5 6.0 6.1 6.6 6.3 6.5 6.9 6.3 7.3 7.8 8.3 7.8 8.0 7.4 7.3 6.8 6.7 6.2 5.8 5.6 5.3 5.9 6.0
6.9 6.9 7.0 7.1 7.2 7.1 7.1 7.1 7.1 7.1 7.0 6.9 6.9 6.8 6.6 6.4 6.3 6.0 6.0 5.9 6.0 6.2 6.1 6.2 6.7 6.3 7.0 7.1 7.4 7.5 7.9 8.2 7.7 7.8 7.8 7.6 7.4 7.0 7.1 6.9 6.4 5.7 6.3 6.2 6.0
6.8 6.9 7.0 7.0 7.0 7.1 7.1 7.2 7.2 7.1 7.1 7.0 7.1 7.0 6.9 6.6 6.5 6.3 6.2 6.1 6.1 6.6 6.0 6.6 6.6 6.7 7.8 7.6 7.5 7.8 7.8 8.2 7.8 7.6 7.6 7.7 7.5 7.3 7.2 6.9 6.5 6.0 6.6 6.5 6.2
6.7 6.8 6.8 6.9 6.9 7.0 7.1 7.1 7.1 7.1 7.0 7.0 7.0 7.0 6.7 6.6 6.6 6.5 6.3 6.3 6.4 6.6 5.9 6.3 6.7 7.2 7.6 7.9 7.6 7.8 8.5 7.9 7.6 7.6 7.5 7.4 7.5 7.4 7.1 6.8 6.4 6.3 6.6 6.4 5.6
6.6 6.7 6.7 6.8 6.8 6.8 6.8 6.9 6.9 6.9 6.9 6.9 7.0 6.9 7.1 6.8 6.7 6.9 6.8 6.7 6.6 6.6 6.0 6.2 6.6 6.9 7.2 7.7 7.1 7.7 7.9 8.2 8.0 7.6 7.4 7.5 8.1 7.6 7.3 6.8 6.5 6.8 6.5 6.2 5.4
6.3 6.4 6.6 6.7 6.6 6.7 6.7 6.7 6.8 6.8 6.7 6.6 6.8 7.0 7.1 6.9 6.9 7.0 7.0 6.8 6.7 6.6 5.9 6.3 6.7 6.6 7.1 8.4 7.7 8.2 8.4 8.6 8.3 8.0 8.7 7.8 7.8 8.1 7.4 7.2 6.6 6.6 6.3 5.9 5.6
5.8 5.9 6.2 6.4 6.5 6.5 6.5 6.5 6.5 6.5 6.6 6.6 6.6 6.7 6.8 6.9 6.9 6.9 6.7 6.8 6.6 6.6 6.8 6.6 6.8 6.8 7.0 7.8 8.1 9.1 9.0 7.9 9.0 8.2 7.6 8.0 8.0 8.6 7.6 7.5 7.1 6.5 6.2 6.6 6.1
5.6 5.6 5.7 5.9 6.1 6.1 6.2 6.3 6.2 6.2 6.2 6.2 6.2 6.3 6.6 6.6 6.7 6.7 6.7 6.7 6.7 6.6 6.8 6.8 6.9 6.9 7.7 8.2 9.0 9.2 9.3 9.4 9.3 8.2 8.2 8.1 8.8 8.4 7.9 7.7 7.5 6.9 6.5 6.3 6.6
5.4 5.5 5.5 5.5 5.6 5.9 5.9 6.0 6.0 5.9 5.9 5.9 5.9 6.0 6.2 6.5 6.4 6.6 6.7 6.6 6.6 6.7 6.8 6.9 7.0 7.8 9.1 9.2 7.4 9.4 9.2 9.5 9.5 9.1 8.6 8.8 9.3 9.2 8.9 8.2 7.8 7.4 6.8 6.3 6.2
5.5 5.4 5.4 5.5 5.4 5.3 5.5 5.6 5.7 5.8 5.6 5.9 6.0 6.1 6.0 5.9 6.3 6.4 6.6 6.7 6.5 6.5 6.9 7.2 7.6 8.8 8.6 8.6 7.8 8.5 9.5 9.5 9.2 8.3 8.6 9.4 9.4 9.4 9.4 8.7 8.4 8.1 7.3 6.9 6.5
5.7 5.6 5.6 5.5 5.4 5.3 5.3 5.3 5.5 5.7 5.5 5.7 5.5 5.7 5.6 5.5 5.8 5.9 6.3 6.3 6.3 6.8 7.1 7.3 7.8 9.2 8.2 7.9 8.0 8.5 9.4 9.4 9.3 8.6 8.6 9.4 8.9 9.3 9.5 9.4 9.0 8.5 8.2 7.4 6.9
5.6 5.6 5.7 5.7 5.5 5.4 5.4 5.4 5.4 5.6 5.5 6.0 5.6 5.6 5.5 5.7 5.8 6.0 6.1 6.0 6.5 6.8 7.4 7.8 8.8 7.7 7.8 8.0 8.3 9.3 9.5 9.6 9.4 9.5 9.5 9.0 9.3 9.4 9.5 9.4 9.4 8.8 8.4 8.1 7.5
5.6 5.6 5.6 5.7 5.7 5.6 5.5 5.6 5.6 5.6 5.7 6.2 5.9 5.7 5.6 5.6 5.8 6.0 5.8 6.1 6.2 6.8 7.3 7.5 8.2 7.9 7.7 7.9 9.0 9.5 9.1 8.5 8.5 9.3 9.6 9.2 9.7 9.6 9.6 9.5 9.6 9.4 9.3 8.5 7.8
5.6 5.6 5.7 5.7 5.6 5.6 5.7 5.7 5.7 5.9 7.6 6.4 5.9 6.0 5.9 5.9 6.5 6.2 6.0 6.0 6.4 7.0 7.0 7.9 7.6 7.3 7.3 8.0 9.1 8.7 9.4 8.2 8.3 8.7 9.6 9.6 9.5 9.8 9.7 9.6 9.6 9.6 9.4 9.3 8.4
5.7 5.8 5.9 5.9 5.8 5.7 5.7 5.8 5.9 5.9 7.6 6.5 6.1 5.9 6.0 6.1 6.3 6.3 6.2 6.0 6.4 6.5 6.8 7.2 7.6 7.2 7.4 7.9 7.7 7.8 7.9 8.2 9.2 9.5 9.7 9.6 9.7 9.7 9.6 9.7 9.6 9.6 9.5 8.7 9.2
5.7 5.8 5.9 5.9 5.9 5.8 5.7 5.7 5.8 7.2 7.0 7.1 6.7 6.5 6.6 6.7 6.5 6.6 6.4 6.4 6.5 6.8 7.0 7.4 7.6 7.6 7.4 7.3 7.4 7.7 8.4 9.4 9.8 9.8 9.8 9.8 9.5 9.7 9.6 9.7 9.6 9.4 8.7 8.4 8.8
5.8 5.9 5.9 5.9 5.8 5.7 5.7 5.2 6.4 7.5 7.4 6.7 6.9 7.0 7.1 7.1 6.9 6.8 6.8 6.8 6.9 7.2 7.9 8.9 9.3 8.8 8.3 7.9 8.1 8.0 9.4 9.7 9.5 9.8 9.8 9.7 9.7 9.7 9.7 9.6 9.7 8.7 8.5 9.1 8.9
5.9 5.9 6.0 6.0 5.9 5.6 5.6 5.8 7.3 7.5 6.9 6.9 7.2 7.3 7.4 7.1 7.2 7.1 7.2 7.5 7.7 7.5 7.6 8.5 8.8 9.3 8.9 8.4 7.9 8.2 8.2 9.0 9.6 9.6 9.7 9.6 9.6 9.6 9.6 9.7 9.6 9.1 8.6 8.9 9.2
6.0 6.0 6.2 6.3 6.1 5.8 5.3 6.3 7.5 6.6 6.4 6.8 7.6 7.5 8.6 8.0 7.3 7.7 7.9 7.8 8.0 8.3 8.0 8.2 8.4 9.1 9.4 8.4 7.7 8.0 8.6 9.6 9.5 9.7 9.6 9.7 9.9 9.6 9.6 9.7 9.6 9.5 9.3 8.4 9.2
5.9 5.7 6.2 6.2 6.1 5.7 5.8 6.8 7.1 6.8 6.4 6.9 7.6 7.4 8.1 7.9 7.8 9.3 9.0 9.3 8.6 8.6 8.6 8.6 8.6 8.9 9.6 9.3 8.7 9.4 8.7 8.6 9.4 9.6 9.9 9.9 9.7 9.3 9.4 9.5 9.4 9.0 8.8 8.3 8.3
5.9 5.7 6.0 6.1 6.1 5.9 6.4 6.9 6.9 6.9 6.7 6.7 6.9 7.2 7.5 8.0 7.8 8.3 9.4 9.5 9.5 9.1 9.4 9.0 9.4 9.5 9.6 9.6 9.6 9.1 9.6 9.6 9.6 9.6 9.6 9.6 9.6 9.7 9.9 9.6 9.3 8.9 9.0 9.1 8.7
5.9 5.7 6.0 6.1 6.2 6.8 6.9 6.9 6.9 6.9 7.0 7.1 7.1 7.2 7.5 7.5 7.8 8.2 8.8 9.5 8.7 8.4 9.4 9.4 9.6 9.6 9.6 9.6 9.6 9.6 9.6 9.6 9.6 9.6 9.7 9.9 9.6 9.7 9.7 9.3 8.7 9.0 9.0 9.1 9.1
6.3 6.4 5.9 6.4 6.4 6.6 7.3 7.0 6.8 6.8 6.9 7.2 7.3 7.4 7.6 7.7 7.9 8.0 8.4 9.0 8.5 8.5 8.8 8.8 9.4 9.6 9.7 9.7 9.7 9.4 9.7 9.6 9.6 9.7 9.7 9.6 9.6 9.7 9.7 9.5 8.4 9.1 8.8 8.8 8.8
6.1 6.5 6.3 6.8 6.7 6.8 7.1 7.2 7.2 7.3 6.8 7.0 7.0 7.3 7.6 7.9 8.2 8.3 8.5 8.7 8.8 9.1 8.6 8.8 9.1 9.6 9.6 9.6 9.6 9.7 9.6 9.6 9.6 9.6 9.6 9.6 9.6 9.7 9.7 9.3 9.1 9.0 9.1 9.0 9.0
6.1 6.1 6.0 6.5 6.4 6.8 7.1 7.2 7.3 7.5 7.1 7.2 7.0 7.5 7.5 7.4 7.9 8.3 8.9 9.2 9.2 9.2 9.0 9.1 9.2 9.2 9.4 9.5 9.6 9.5 9.5 9.6 9.6 9.6 9.6 9.6 9.6 9.6 8.9 9.3 9.1 8.7 8.7 9.0 9.0
6.2 6.4 6.5 6.7 7.0 7.1 7.5 7.4 7.3 7.2 6.9 7.0 6.9 6.7 7.2 7.3 6.9 7.3 7.9 8.0 8.2 8.3 8.4 8.6 9.3 9.4 9.5 9.5 9.6 9.6 9.4 9.1 8.7 9.3 8.8 8.7 8.7 8.8 8.4 8.2 9.1 8.0 8.4 8.6 8.8
Wind_Speed
14 14 14 13 14 14 14 14 14 14 13 14 14 14 13 14 18 7 9 5 4 18 8 7 7 7 10 3 8 7 4 3 10 7 11 7 12 7 6 9 7 5 6 23 22
15 15 14 14 14 15 14 14 14 14 15 15 14 14 13 13 11 11 6 8 13 16 12 10 6 6 4 4 5 6 6 9 9 3 10 7 6 8 10 7 10 10 13 18 21
15 15 16 16 16 15 15 14 14 14 15 15 15 14 12 13 5 8 6 6 11 13 13 5 5 9 11 8 5 3 4 4 9 7 2 10 6 4 4 5 10 13 14 18 19
17 17 17 17 17 17 17 16 15 15 16 15 17 14 12 7 1 5 6 8 11 13 9 1 5 13 8 3 3 7 3 4 7 6 3 3 11 6 3 11 9 15 17 19 19
18 18 18 17 17 18 18 17 17 17 17 15 18 11 8 5 6 11 8 11 10 10 6 4 9 10 4 2 6 6 5 4 7 6 2 2 3 5 4 9 11 16 16 18 17
19 20 20 19 18 20 19 19 18 17 18 15 16 12 5 11 7 12 11 13 12 10 3 8 6 8 9 5 4 2 3 3 5 10 5 9 7 5 10 9 13 16 16 16 17
21 20 21 21 20 20 20 20 19 18 17 14 11 7 10 3 3 16 13 13 12 11 6 4 7 10 10 6 1 6 10 12 8 3 3 5 8 8 10 10 13 14 13 14 15
21 21 22 23 23 21 21 22 21 17 16 13 8 10 6 4 2 10 13 12 10 10 9 7 9 11 10 3 12 14 8 9 9 5 7 9 7 12 11 11 12 13 13 13 14
21 22 23 24 25 25 24 23 20 14 10 9 6 8 6 4 10 12 13 11 10 9 8 9 11 13 8 16 13 11 5 7 6 4 3 6 4 9 9 11 12 13 14 14 15
23 24 23 23 24 25 29 19 5 7 8 9 10 8 8 11 10 11 12 9 8 8 10 11 9 14 12 10 3 9 7 5 4 5 7 8 12 6 12 9 11 14 15 16 16
22 22 24 24 24 24 17 4 5 7 13 15 2 10 7 6 7 11 12 11 12 8 13 12 12 12 7 9 6 5 9 3 7 3 9 7 6 6 6 10 11 13 15 16 17
22 23 24 26 27 23 8 7 8 6 9 19 13 6 3 9 9 12 14 12 14 14 15 5 13 14 6 4 8 9 10 3 5 6 8 13 8 13 8 7 10 12 14 17 18
23 24 25 27 30 9 8 5 3 10 7 15 13 16 13 12 14 16 17 18 13 15 15 15 1 8 2 9 11 14 12 9 10 13 16 9 17 14 10 13 6 12 12 16 18
21 22 25 32 8 4 4 1 5 6 6 14 12 10 11 11 17 12 18 16 15 17 16 14 15 8 10 13 13 15 7 6 11 13 11 9 10 10 6 4 5 13 13 14 18
22 20 21 14 11 4 5 4 8 4 6 8 10 5 11 19 3 19 14 18 18 15 10 13 16 11 15 16 12 12 12 10 13 15 18 16 10 4 2 4 10 4 2 13 16
24 21 21 6 6 8 6 7 6 7 4 8 8 11 13 17 21 4 17 17 12 17 19 16 16 9 12 10 8 12 14 17 20 15 15 16 2 6 6 5 5 3 7 1 7
23 20 9 9 1 6 6 7 7 9 5 8 11 12 15 12 19 17 15 18 16 14 17 19 20 18 14 18 17 18 18 13 14 13 14 9 3 7 10 4 5 6 5 2 5
30 19 11 8 4 6 6 8 9 4 2 4 4 8 12 10 14 22 19 17 21 23 17 15 17 24 20 22 18 18 20 14 18 16 14 9 6 4 7 7 5 7 3 1 5
33 5 7 4 11 6 7 11 8 6 4 5 7 12 12 6 7 15 20 20 19 21 22 18 19 14 6 7 9 16 18 22 23 20 17 17 14 10 8 5 6 3 2 3 2
6 5 5 5 7 7 9 16 10 2 7 8 13 3 9 13 11 11 16 16 22 19 13 16 18 19 10 11 15 18 16 10 12 20 20 16 16 9 9 2 7 6 4 4 2
5 5 5 7 7 8 11 16 13 7 6 7 8 5 12 2 9 14 12 11 10 19 20 16 16 17 14 16 16 16 15 16 19 14 15 16 15 12 4 5 4 6 6 2 3
6 6 5 7 8 9 13 18 5 8 10 11 6 11 10 10 10 14 12 11 2 8 11 14 13 16 21 19 17 16 20 17 12 20 15 16 14 15 1 4 3 3 4 1 3
4 1 6 8 7 12 14 12 8 11 14 9 12 9 11 10 10 14 14 7 7 10 4 11 12 13 18 16 19 15 17 18 19 16 18 16 14 2 6 6 6 6 6 5 3
5 5 5 8 13 12 11 14 16 12 15 14 13 12 14 15 14 11 12 9 2 11 7 7 13 17 15 14 7 13 16 18 19 16 19 19 19 16 18 10 12 8 7 6 6
5 3 6 6 11 13 15 9 15 13 10 8 10 15 15 16 17 19 18 19 15 10 9 11 18 19 22 21 19 12 18 20 19 18 21 19 22 17 10 10 4 10 8 8 9
5 4 4 10 3 8 4 13 11 8 4 10 10 15 7 11 14 16 15 11 12 11 12 16 18 17 21 23 24 24 18 19 15 17 22 20 23 17 14 5 2 7 6 7 7
7 5 5 4 10 10 11 11 7 11 3 10 4 4 13 7 13 14 13 13 15 15 12 16 15 16 19 22 22 21 18 9 30 26 21 9 22 36 20 8 3 3 3 6 7
Wind_Direction
355 349 347 346 340 338 333 334 332 334 327 321 317 311 310 311 296 225 254 57 144 166 217 195 223 237 234 254 251 249 288 19 81 62 112 151 107 85 93 120 61 64 14 138 142
352 347 345 343 340 336 333 333 332 330 322 320 314 310 313 318 275 227 95 119 155 172 211 202 195 196 246 244 229 193 293 161 29 65 101 115 100 110 140 128 111 92 100 133 154
352 349 344 343 340 334 331 331 330 323 315 315 312 305 315 308 280 76 93 139 180 199 260 283 247 279 243 219 196 88 265 134 136 44 360 107 133 148 129 146 109 124 141 152 164
351 347 344 344 339 333 331 329 327 320 310 314 305 311 311 253 34 80 131 153 187 232 236 232 268 244 239 154 139 268 103 324 108 133 148 144 98 134 345 78 87 125 151 161 171
348 344 342 342 339 331 330 327 325 317 310 309 302 331 283 219 86 134 150 168 195 233 214 211 252 309 75 5 215 329 85 213 146 130 294 102 140 56 142 97 119 134 156 168 178
346 344 342 340 339 330 328 323 319 312 306 304 299 316 240 256 110 161 190 181 225 237 203 260 356 342 287 295 171 56 247 148 166 144 193 267 156 201 143 142 138 152 165 175 182
346 345 340 336 334 329 323 318 313 308 301 296 289 285 266 43 177 165 193 200 220 244 295 316 315 295 333 238 335 238 233 178 154 163 183 245 320 192 132 166 158 168 172 179 187
346 341 337 334 331 327 321 314 306 299 295 285 266 259 289 116 218 176 194 205 218 243 271 293 300 280 254 304 230 239 204 154 156 183 119 258 208 179 149 181 171 178 176 183 189
342 338 336 332 329 323 316 309 293 283 269 271 252 231 252 130 198 195 200 212 212 230 250 283 276 270 242 231 205 217 190 72 147 136 95 258 299 115 168 190 182 183 186 190 190
339 335 332 328 326 321 315 297 314 269 228 232 268 268 200 221 171 182 200 243 220 231 237 243 240 248 219 232 248 24 359 119 25 70 183 220 234 214 169 210 201 188 192 196 199
336 331 328 324 323 321 320 214 207 202 216 236 244 229 142 117 161 197 190 212 232 223 244 195 252 233 325 40 359 284 290 292 123 342 294 270 314 275 220 187 220 208 187 201 205
334 330 326 323 319 314 280 262 39 346 289 214 241 262 245 196 199 195 181 212 208 229 215 219 238 281 87 292 274 271 277 251 252 177 264 278 273 256 220 223 202 224 203 201 200
335 330 326 322 318 288 264 354 350 337 255 220 218 224 206 212 239 181 199 213 224 238 247 250 2 49 200 248 257 251 252 354 316 303 255 250 260 229 204 204 218 203 231 199 204
331 329 326 323 301 341 228 69 296 317 265 168 202 225 211 212 230 240 192 219 232 247 242 248 257 254 238 244 265 275 63 282 292 304 313 205 292 240 231 299 240 203 195 215 194
333 328 323 319 316 247 35 285 303 230 257 146 134 82 211 207 245 196 193 224 248 230 249 250 225 234 242 247 256 282 321 295 292 283 284 264 241 356 236 162 244 108 106 187 194
329 323 321 224 219 284 295 296 239 234 238 151 151 192 192 210 226 123 197 225 244 252 264 249 279 273 269 258 283 279 287 275 267 255 261 262 271 297 348 36 294 312 146 327 215
324 313 287 312 2 332 286 231 231 247 106 160 189 179 208 182 216 202 203 211 223 224 240 243 245 250 225 260 255 254 260 269 268 247 251 105 234 321 314 295 316 16 19 210 257
323 314 196 252 284 279 245 228 254 338 206 67 236 193 227 201 202 215 226 223 217 245 264 233 231 221 222 233 255 263 260 255 271 272 278 120 241 231 2 303 215 151 152 311 227
316 197 222 174 219 246 237 226 236 270 25 261 201 245 197 203 263 205 217 236 229 211 241 259 254 267 244 286 259 257 244 262 271 273 274 284 276 202 203 332 102 50 108 201 175
303 253 167 137 189 222 234 246 262 341 309 247 261 215 250 193 197 201 207 222 243 243 212 257 262 269 265 211 241 253 279 270 227 257 271 282 282 251 151 267 42 290 178 124 244
246 229 86 171 192 219 228 234 241 182 252 278 276 272 260 295 271 264 241 208 225 236 237 235 255 260 247 234 249 229 228 248 274 275 250 249 250 97 190 217 18 306 59 92 214
282 237 138 181 202 221 231 239 284 248 197 257 264 286 290 292 281 280 272 254 31 259 218 250 249 247 248 252 223 247 265 239 239 241 261 285 284 315 4 110 85 7 124 119 356
261 68 161 217 229 227 225 255 268 236 242 236 238 244 272 271 269 256 271 299 345 264 327 268 228 256 256 247 232 229 233 254 272 272 268 270 262 178 97 194 121 127 155 158 173
273 213 152 206 264 287 250 213 239 224 264 270 267 270 265 260 256 264 270 258 156 271 26 307 274 262 271 270 13 294 249 250 251 255 260 256 262 260 253 175 142 141 163 163 184
239 296 8 193 226 235 260 245 228 231 198 262 254 246 254 259 253 252 253 258 262 222 225 245 254 272 283 294 287 240 260 276 280 268 265 279 284 280 73 17 315 153 166 170 163
316 336 343 283 288 276 209 248 251 236 237 243 228 275 312 281 271 279 281 266 261 289 220 241 254 266 281 288 286 280 278 261 261 265 273 270 273 303 45 89 154 122 165 178 176
358 282 271 235 242 225 240 220 228 258 262 260 291 326 260 347 344 319 297 292 283 284 280 279 283 265 259 268 275 270 218 266 299 308 354 2 333 315 25 347 56 133 184 184 157